CZ-2D DEB (57572 NORAD) Tracking and Keplerian Element Data

This shows tracking and keplerian element data for the satellite.

Feedback or suggestion? Click here.




ElementValue
Catalog57572
NameCZ-2D DEB
Epoch Orbit1
Epoch Day221.54901532
Epoch Year2023
RAAN227.786
Inclination97.6125
Eccentricity0.0109142
Argument of Perigee225.4211
Mean Anonmoly257.0553
Mean Motion15.11104688
Decay Rate-7.9E-07
L11 57572U 23116E 23221.54901532 -.00000079 00000+0 00000+0 0 9993
L22 57572 97.6125 227.7860 0109142 225.4211 257.0553 15.11104688 17



Live tracking and technical data element details for CZ-2D DEB (NORAD 57572). CZ-2D DEB can be tracked NOW for your location showing map with azimuth and elevation plus other details from your city location.







IsCatalogInMostPopularTable: catalog: 57572, numindb: 4
Update: records affected: 1



GetName: 57572 CZ-2D DEB

Hit Count: updated at: Tue, 26 Sep 2023 11:57:44 GMT